contact:dominique.lefevre@mio.osupytheas.fr, maurice.libes@osupytheas.fr, didier.mallarino@osupytheas.fr
Project:EMSO http://www.emso-fr.org/EMSO-France
Depth: 2436.0 m
Title:EMSO Ligure Ouest : Data MII capteur MICROCAT
DateTime_Computer,Latitude,Longitude,Temperature,Conductivity,Pressure,DateTime_Instrument
DateTime_Computer,Latitude,Longitude,degC,S m-1,dbar,DateTime_Instrument
2021-12-23T00:02:55Z,42.805,6.029,13.3032,4.60076,2470.227,2021-12-23T02:04:24Z
2021-12-23T00:05:58Z,42.805,6.029,13.3019,4.60077,2470.217,2021-12-23T02:07:27Z
2021-12-23T00:09:02Z,42.805,6.029,13.3017,4.60084,2470.227,2021-12-23T02:10:31Z
2021-12-23T00:12:05Z,42.805,6.029,13.3011,4.60072,2470.194,2021-12-23T02:13:34Z
2021-12-23T00:15:08Z,42.805,6.029,13.3022,4.60084,2470.227,2021-12-23T02:16:37Z
2021-12-23T00:18:11Z,42.805,6.029,13.3030,4.60093,2470.203,2021-12-23T02:19:40Z
2021-12-23T00:21:14Z,42.805,6.029,13.3014,4.60073,2470.203,2021-12-23T02:22:43Z
2021-12-23T00:24:17Z,42.805,6.029,13.3020,4.60081,2470.24,2021-12-23T02:25:46Z
2021-12-23T00:27:20Z,42.805,6.029,13.3011,4.60086,2470.203,2021-12-23T02:28:49Z
2021-12-23T00:30:23Z,42.805,6.029,13.3034,4.60078,2470.227,2021-12-23T02:31:53Z
2021-12-23T00:33:27Z,42.805,6.029,13.3034,4.60080,2470.203,2021-12-23T02:34:56Z
2021-12-23T00:36:30Z,42.805,6.029,13.3031,4.60072,2470.217,2021-12-23T02:37:59Z
2021-12-23T00:39:33Z,42.805,6.029,13.3021,4.60061,2470.217,2021-12-23T02:41:02Z
2021-12-23T00:42:36Z,42.805,6.029,13.3012,4.60084,2470.194,2021-12-23T02:44:05Z
2021-12-23T00:45:39Z,42.805,6.029,13.3015,4.60077,2470.227,2021-12-23T02:47:08Z
2021-12-23T00:48:42Z,42.805,6.029,13.3030,4.60074,2470.194,2021-12-23T02:50:11Z
2021-12-23T00:51:45Z,42.805,6.029,13.3009,4.60062,2470.227,2021-12-23T02:53:14Z
2021-12-23T00:54:48Z,42.805,6.029,13.3024,4.60068,2470.227,2021-12-23T02:56:17Z
2021-12-23T00:57:52Z,42.805,6.029,13.3029,4.60074,2470.203,2021-12-23T02:59:21Z
2021-12-23T01:00:55Z,42.805,6.029,13.3023,4.60084,2470.18,2021-12-23T03:02:24Z
2021-12-23T01:03:58Z,42.805,6.029,13.3029,4.60062,2470.227,2021-12-23T03:05:27Z
2021-12-23T01:07:01Z,42.805,6.029,13.3016,4.60075,2470.25,2021-12-23T03:08:30Z
2021-12-23T01:10:04Z,42.805,6.029,13.3021,4.60067,2470.217,2021-12-23T03:11:33Z
2021-12-23T01:13:07Z,42.805,6.029,13.3015,4.60076,2470.194,2021-12-23T03:14:36Z
2021-12-23T01:16:10Z,42.805,6.029,13.3020,4.60076,2470.217,2021-12-23T03:17:39Z
2021-12-23T01:19:13Z,42.805,6.029,13.3021,4.60089,2470.227,2021-12-23T03:20:42Z
2021-12-23T01:22:16Z,42.805,6.029,13.3015,4.60053,2470.18,2021-12-23T03:23:46Z
2021-12-23T01:25:20Z,42.805,6.029,13.3014,4.60059,2470.217,2021-12-23T03:26:49Z
2021-12-23T01:28:23Z,42.805,6.029,13.3020,4.60081,2470.227,2021-12-23T03:29:52Z
2021-12-23T01:31:26Z,42.805,6.029,13.3030,4.60032,2470.203,2021-12-23T03:32:55Z
2021-12-23T01:34:29Z,42.805,6.029,13.3013,4.60049,2470.24,2021-12-23T03:35:58Z
2021-12-23T01:37:32Z,42.805,6.029,13.3019,4.60059,2470.217,2021-12-23T03:39:01Z
2021-12-23T01:40:35Z,42.805,6.029,13.3019,4.60064,2470.217,2021-12-23T03:42:04Z
2021-12-23T01:43:38Z,42.805,6.029,13.3024,4.60069,2470.203,2021-12-23T03:45:07Z
2021-12-23T01:46:41Z,42.805,6.029,13.3031,4.60079,2470.217,2021-12-23T03:48:11Z
2021-12-23T01:49:45Z,42.805,6.029,13.3037,4.60072,2470.203,2021-12-23T03:51:14Z
2021-12-23T01:52:48Z,42.805,6.029,13.3021,4.60077,2470.203,2021-12-23T03:54:17Z
2021-12-23T01:55:51Z,42.805,6.029,13.3027,4.60068,2470.25,2021-12-23T03:57:20Z
2021-12-23T01:58:54Z,42.805,6.029,13.3022,4.60050,2470.18,2021-12-23T04:00:23Z
2021-12-23T02:01:57Z,42.805,6.029,13.3019,4.60066,2470.227,2021-12-23T04:03:26Z
2021-12-23T02:05:00Z,42.805,6.029,13.3017,4.60056,2470.227,2021-12-23T04:06:29Z
2021-12-23T02:08:03Z,42.805,6.029,13.3011,4.60034,2470.18,2021-12-23T04:09:32Z
2021-12-23T02:11:06Z,42.805,6.029,13.3007,4.60046,2470.217,2021-12-23T04:12:36Z
2021-12-23T02:14:10Z,42.805,6.029,13.3024,4.60047,2470.203,2021-12-23T04:15:39Z
2021-12-23T02:17:13Z,42.805,6.029,13.3006,4.60039,2470.194,2021-12-23T04:18:42Z
2021-12-23T02:20:16Z,42.805,6.029,13.3027,4.60034,2470.217,2021-12-23T04:21:45Z
2021-12-23T02:23:19Z,42.805,6.029,13.3009,4.60033,2470.217,2021-12-23T04:24:48Z
2021-12-23T02:26:22Z,42.805,6.029,13.3022,4.60063,2470.217,2021-12-23T04:27:51Z
2021-12-23T02:29:25Z,42.805,6.029,13.3029,4.60052,2470.18,2021-12-23T04:30:54Z
2021-12-23T02:32:28Z,42.805,6.029,13.3015,4.60067,2470.217,2021-12-23T04:33:57Z
2021-12-23T02:35:31Z,42.805,6.029,13.3019,4.60069,2470.18,2021-12-23T04:37:01Z
2021-12-23T02:38:35Z,42.805,6.029,13.3019,4.60059,2470.194,2021-12-23T04:40:04Z
2021-12-23T02:41:38Z,42.805,6.029,13.3021,4.60038,2470.217,2021-12-23T04:43:07Z
2021-12-23T02:44:41Z,42.805,6.029,13.3018,4.60046,2470.18,2021-12-23T04:46:10Z
2021-12-23T02:47:44Z,42.805,6.029,13.3025,4.60032,2470.217,2021-12-23T04:49:13Z
2021-12-23T02:50:47Z,42.805,6.029,13.3005,4.60042,2470.217,2021-12-23T04:52:16Z
2021-12-23T02:53:50Z,42.805,6.029,13.3016,4.60074,2470.217,2021-12-23T04:55:19Z
2021-12-23T02:56:53Z,42.805,6.029,13.3019,4.60042,2470.217,2021-12-23T04:58:22Z
2021-12-23T02:59:56Z,42.805,6.029,13.3009,4.60095,2470.217,2021-12-23T05:01:26Z
2021-12-23T03:03:00Z,42.805,6.029,13.3030,4.60036,2470.194,2021-12-23T05:04:29Z
2021-12-23T03:06:03Z,42.805,6.029,13.3022,4.60028,2470.18,2021-12-23T05:07:32Z
2021-12-23T03:09:06Z,42.805,6.029,13.3006,4.60042,2470.227,2021-12-23T05:10:35Z
2021-12-23T03:12:09Z,42.805,6.029,13.3018,4.60027,2470.18,2021-12-23T05:13:38Z
2021-12-23T03:15:12Z,42.805,6.029,13.3018,4.60044,2470.217,2021-12-23T05:16:41Z
2021-12-23T03:18:15Z,42.805,6.029,13.3006,4.60049,2470.203,2021-12-23T05:19:44Z
2021-12-23T03:21:18Z,42.805,6.029,13.3017,4.60072,2470.227,2021-12-23T05:22:47Z
2021-12-23T03:24:21Z,42.805,6.029,13.3001,4.60054,2470.24,2021-12-23T05:25:51Z
2021-12-23T03:27:25Z,42.805,6.029,13.3008,4.60041,2470.227,2021-12-23T05:28:54Z
2021-12-23T03:30:28Z,42.805,6.029,13.3020,4.60041,2470.18,2021-12-23T05:31:57Z
2021-12-23T03:33:31Z,42.805,6.029,13.3020,4.60056,2470.25,2021-12-23T05:35:00Z
2021-12-23T03:36:34Z,42.805,6.029,13.3000,4.60052,2470.227,2021-12-23T05:38:03Z
2021-12-23T03:39:37Z,42.805,6.029,13.3018,4.60038,2470.227,2021-12-23T05:41:06Z
2021-12-23T03:42:40Z,42.805,6.029,13.3016,4.60043,2470.227,2021-12-23T05:44:09Z
2021-12-23T03:45:43Z,42.805,6.029,13.3011,4.60038,2470.24,2021-12-23T05:47:12Z
2021-12-23T03:48:46Z,42.805,6.029,13.3011,4.60045,2470.227,2021-12-23T05:50:16Z
2021-12-23T03:51:50Z,42.805,6.029,13.3011,4.60040,2470.24,2021-12-23T05:53:19Z
2021-12-23T03:54:53Z,42.805,6.029,13.3011,4.60030,2470.194,2021-12-23T05:56:22Z
2021-12-23T03:57:56Z,42.805,6.029,13.3013,4.60041,2470.25,2021-12-23T05:59:25Z
2021-12-23T04:00:59Z,42.805,6.029,13.3010,4.60032,2470.24,2021-12-23T06:02:28Z
2021-12-23T04:04:02Z,42.805,6.029,13.3009,4.60034,2470.24,2021-12-23T06:05:31Z
2021-12-23T04:07:05Z,42.805,6.029,13.3006,4.60034,2470.203,2021-12-23T06:08:34Z
2021-12-23T04:10:08Z,42.805,6.029,13.3009,4.60039,2470.264,2021-12-23T06:11:37Z
2021-12-23T04:13:11Z,42.805,6.029,13.3013,4.60040,2470.24,2021-12-23T06:14:41Z
2021-12-23T04:16:15Z,42.805,6.029,13.3007,4.60041,2470.203,2021-12-23T06:17:44Z
2021-12-23T04:19:18Z,42.805,6.029,13.3009,4.60045,2470.203,2021-12-23T06:20:47Z
2021-12-23T04:22:21Z,42.805,6.029,13.3016,4.60039,2470.25,2021-12-23T06:23:50Z
2021-12-23T04:25:24Z,42.805,6.029,13.3007,4.60034,2470.24,2021-12-23T06:26:53Z
2021-12-23T04:28:27Z,42.805,6.029,13.3020,4.60046,2470.227,2021-12-23T06:29:56Z
2021-12-23T04:31:30Z,42.805,6.029,13.3009,4.60027,2470.25,2021-12-23T06:32:59Z
2021-12-23T04:34:33Z,42.805,6.029,13.3009,4.60032,2470.227,2021-12-23T06:36:02Z
2021-12-23T04:37:36Z,42.805,6.029,13.3007,4.60036,2470.24,2021-12-23T06:39:05Z
2021-12-23T04:40:40Z,42.805,6.029,13.3005,4.60052,2470.264,2021-12-23T06:42:09Z
2021-12-23T04:43:43Z,42.805,6.029,13.3029,4.60034,2470.227,2021-12-23T06:45:12Z
2021-12-23T04:46:46Z,42.805,6.029,13.3014,4.60038,2470.227,2021-12-23T06:48:15Z
2021-12-23T04:49:49Z,42.805,6.029,13.3012,4.60053,2470.24,2021-12-23T06:51:18Z
2021-12-23T04:52:52Z,42.805,6.029,13.3013,4.60040,2470.25,2021-12-23T06:54:21Z
2021-12-23T04:55:55Z,42.805,6.029,13.3008,4.60041,2470.273,2021-12-23T06:57:24Z
2021-12-23T04:58:58Z,42.805,6.029,13.3030,4.60032,2470.287,2021-12-23T07:00:27Z
2021-12-23T05:02:01Z,42.805,6.029,13.3015,4.60042,2470.227,2021-12-23T07:03:30Z
2021-12-23T05:05:04Z,42.805,6.029,13.3008,4.60031,2470.264,2021-12-23T07:06:34Z
2021-12-23T05:08:08Z,42.805,6.029,13.3009,4.60055,2470.287,2021-12-23T07:09:37Z
2021-12-23T05:11:11Z,42.805,6.029,13.3032,4.60029,2470.264,2021-12-23T07:12:40Z
2021-12-23T05:14:14Z,42.805,6.029,13.3015,4.60039,2470.264,2021-12-23T07:15:43Z
2021-12-23T05:17:17Z,42.805,6.029,13.3006,4.60046,2470.273,2021-12-23T07:18:46Z
2021-12-23T05:20:20Z,42.805,6.029,13.3036,4.60046,2470.297,2021-12-23T07:21:49Z
2021-12-23T05:23:23Z,42.805,6.029,13.3018,4.60054,2470.287,2021-12-23T07:24:52Z
2021-12-23T05:26:26Z,42.805,6.029,13.3024,4.60041,2470.25,2021-12-23T07:27:55Z
2021-12-23T05:29:29Z,42.805,6.029,13.3002,4.60031,2470.24,2021-12-23T07:30:59Z
2021-12-23T05:32:33Z,42.805,6.029,13.3013,4.60033,2470.273,2021-12-23T07:34:02Z
2021-12-23T05:35:36Z,42.805,6.029,13.3008,4.60041,2470.273,2021-12-23T07:37:05Z
2021-12-23T05:38:39Z,42.805,6.029,13.3012,4.60035,2470.31,2021-12-23T07:40:08Z
2021-12-23T05:41:42Z,42.805,6.029,13.3013,4.60039,2470.273,2021-12-23T07:43:11Z
2021-12-23T05:44:45Z,42.805,6.029,13.3004,4.60045,2470.297,2021-12-23T07:46:14Z
2021-12-23T05:47:48Z,42.805,6.029,13.3016,4.60031,2470.31,2021-12-23T07:49:17Z
2021-12-23T05:50:51Z,42.805,6.029,13.3013,4.60037,2470.297,2021-12-23T07:52:20Z
2021-12-23T05:53:54Z,42.805,6.029,13.3013,4.60036,2470.31,2021-12-23T07:55:24Z
2021-12-23T05:56:58Z,42.805,6.029,13.3017,4.60030,2470.31,2021-12-23T07:58:27Z
2021-12-23T06:00:01Z,42.805,6.029,13.3004,4.60029,2470.31,2021-12-23T08:01:30Z
2021-12-23T06:03:04Z,42.805,6.029,13.3009,4.60039,2470.297,2021-12-23T08:04:33Z
2021-12-23T06:06:07Z,42.805,6.029,13.3017,4.60041,2470.297,2021-12-23T08:07:36Z
2021-12-23T06:09:10Z,42.805,6.029,13.3017,4.60046,2470.297,2021-12-23T08:10:39Z
2021-12-23T06:12:13Z,42.805,6.029,13.3009,4.60040,2470.343,2021-12-23T08:13:42Z
2021-12-23T06:15:16Z,42.805,6.029,13.3016,4.60052,2470.343,2021-12-23T08:16:45Z
2021-12-23T06:18:19Z,42.805,6.029,13.3019,4.60028,2470.31,2021-12-23T08:19:49Z
2021-12-23T06:21:23Z,42.805,6.029,13.3039,4.60041,2470.297,2021-12-23T08:22:52Z
2021-12-23T06:24:26Z,42.805,6.029,13.3024,4.60042,2470.31,2021-12-23T08:25:55Z
2021-12-23T06:27:29Z,42.805,6.029,13.3016,4.60054,2470.297,2021-12-23T08:28:58Z
2021-12-23T06:30:32Z,42.805,6.029,13.3015,4.60035,2470.306,2021-12-23T08:32:01Z
2021-12-23T06:33:35Z,42.805,6.029,13.3015,4.60052,2470.366,2021-12-23T08:35:04Z
2021-12-23T06:36:38Z,42.805,6.029,13.3014,4.60049,2470.343,2021-12-23T08:38:07Z
2021-12-23T06:39:41Z,42.805,6.029,13.3014,4.60036,2470.334,2021-12-23T08:41:10Z
2021-12-23T06:42:44Z,42.805,6.029,13.3015,4.60044,2470.404,2021-12-23T08:44:14Z
2021-12-23T06:45:48Z,42.805,6.029,13.3009,4.60042,2470.357,2021-12-23T08:47:17Z
2021-12-23T06:48:51Z,42.805,6.029,13.3017,4.60051,2470.343,2021-12-23T08:50:20Z
2021-12-23T06:51:54Z,42.805,6.029,13.3015,4.60033,2470.366,2021-12-23T08:53:23Z
2021-12-23T06:54:57Z,42.805,6.029,13.3018,4.60050,2470.366,2021-12-23T08:56:26Z
2021-12-23T06:58:00Z,42.805,6.029,13.3026,4.60051,2470.39,2021-12-23T08:59:29Z
2021-12-23T07:01:03Z,42.805,6.029,13.3030,4.60045,2470.366,2021-12-23T09:02:32Z
2021-12-23T07:04:06Z,42.805,6.029,13.3014,4.60049,2470.39,2021-12-23T09:05:35Z
2021-12-23T07:07:09Z,42.805,6.029,13.3034,4.60046,2470.366,2021-12-23T09:08:39Z
2021-12-23T07:10:13Z,42.805,6.029,13.3023,4.60044,2470.366,2021-12-23T09:11:42Z
2021-12-23T07:13:16Z,42.805,6.029,13.3027,4.60041,2470.366,2021-12-23T09:14:45Z
2021-12-23T07:16:19Z,42.805,6.029,13.3027,4.60036,2470.366,2021-12-23T09:17:48Z
2021-12-23T07:19:22Z,42.805,6.029,13.3025,4.60049,2470.413,2021-12-23T09:20:51Z
2021-12-23T07:22:25Z,42.805,6.029,13.3024,4.60063,2470.39,2021-12-23T09:23:54Z
2021-12-23T07:25:28Z,42.805,6.029,13.3022,4.60049,2470.39,2021-12-23T09:26:57Z
2021-12-23T07:28:31Z,42.805,6.029,13.3017,4.60037,2470.404,2021-12-23T09:30:00Z
2021-12-23T07:31:34Z,42.805,6.029,13.3019,4.60039,2470.413,2021-12-23T09:33:04Z
2021-12-23T07:34:37Z,42.805,6.029,13.3022,4.60044,2470.413,2021-12-23T09:36:07Z
2021-12-23T07:37:41Z,42.805,6.029,13.3040,4.60041,2470.45,2021-12-23T09:39:10Z
2021-12-23T07:40:44Z,42.805,6.029,13.3015,4.60031,2470.427,2021-12-23T09:42:13Z
2021-12-23T07:43:47Z,42.805,6.029,13.3019,4.60031,2470.45,2021-12-23T09:45:16Z
2021-12-23T07:46:50Z,42.805,6.029,13.3015,4.60043,2470.45,2021-12-23T09:48:19Z
2021-12-23T07:49:53Z,42.805,6.029,13.3009,4.60045,2470.437,2021-12-23T09:51:22Z
2021-12-23T07:52:56Z,42.805,6.029,13.3021,4.60044,2470.437,2021-12-23T09:54:25Z
2021-12-23T07:55:59Z,42.805,6.029,13.3015,4.60039,2470.45,2021-12-23T09:57:29Z
2021-12-23T07:59:02Z,42.805,6.029,13.3017,4.60046,2470.474,2021-12-23T10:00:32Z
2021-12-23T08:02:06Z,42.805,6.029,13.3009,4.60036,2470.46,2021-12-23T10:03:35Z
2021-12-23T08:05:09Z,42.805,6.029,13.3022,4.60044,2470.45,2021-12-23T10:06:38Z
2021-12-23T08:08:12Z,42.805,6.029,13.3012,4.60042,2470.45,2021-12-23T10:09:41Z
2021-12-23T08:11:15Z,42.805,6.029,13.3011,4.60079,2470.446,2021-12-23T10:12:44Z
2021-12-23T08:14:18Z,42.805,6.029,13.3021,4.60054,2470.497,2021-12-23T10:15:47Z
2021-12-23T08:17:21Z,42.805,6.029,13.3009,4.60051,2470.474,2021-12-23T10:18:50Z
2021-12-23T08:20:25Z,42.805,6.029,13.3022,4.60037,2470.474,2021-12-23T10:21:54Z
2021-12-23T08:23:28Z,42.805,6.029,13.3029,4.60047,2470.45,2021-12-23T10:24:57Z
2021-12-23T08:26:31Z,42.805,6.029,13.3046,4.60054,2470.483,2021-12-23T10:28:00Z
2021-12-23T08:29:34Z,42.805,6.029,13.3019,4.60037,2470.474,2021-12-23T10:31:04Z
2021-12-23T08:32:38Z,42.805,6.029,13.3014,4.60041,2470.46,2021-12-23T10:34:07Z
2021-12-23T08:35:41Z,42.805,6.029,13.3018,4.60046,2470.483,2021-12-23T10:37:10Z
2021-12-23T08:38:44Z,42.805,6.029,13.3019,4.60049,2470.53,2021-12-23T10:40:13Z
2021-12-23T08:41:47Z,42.805,6.029,13.3020,4.60054,2470.507,2021-12-23T10:43:16Z
2021-12-23T08:44:50Z,42.805,6.029,13.3038,4.60033,2470.507,2021-12-23T10:46:19Z
2021-12-23T08:47:53Z,42.805,6.029,13.3031,4.60049,2470.483,2021-12-23T10:49:22Z
2021-12-23T08:50:56Z,42.805,6.029,13.3023,4.60049,2470.483,2021-12-23T10:52:25Z
2021-12-23T08:54:00Z,42.805,6.029,13.3006,4.60055,2470.483,2021-12-23T10:55:29Z
2021-12-23T08:57:03Z,42.805,6.029,13.3030,4.60033,2470.46,2021-12-23T10:58:32Z
2021-12-23T09:00:06Z,42.805,6.029,13.3015,4.60039,2470.511,2021-12-23T11:01:35Z
2021-12-23T09:03:09Z,42.805,6.029,13.3034,4.60055,2470.52,2021-12-23T11:04:38Z
2021-12-23T09:06:12Z,42.805,6.029,13.3013,4.60042,2470.446,2021-12-23T11:07:41Z
2021-12-23T09:09:15Z,42.805,6.029,13.3009,4.60088,2470.483,2021-12-23T11:10:44Z
2021-12-23T09:12:18Z,42.805,6.029,13.3021,4.60059,2470.544,2021-12-23T11:13:47Z
2021-12-23T09:15:21Z,42.805,6.029,13.3018,4.60058,2470.52,2021-12-23T11:16:51Z
2021-12-23T09:18:25Z,42.805,6.029,13.3039,4.60079,2470.53,2021-12-23T11:19:54Z
2021-12-23T09:21:28Z,42.805,6.029,13.3040,4.60058,2470.544,2021-12-23T11:22:57Z
2021-12-23T09:24:31Z,42.805,6.029,13.3027,4.60066,2470.507,2021-12-23T11:26:00Z
2021-12-23T09:27:34Z,42.805,6.029,13.3022,4.60054,2470.507,2021-12-23T11:29:03Z
2021-12-23T09:30:37Z,42.805,6.029,13.3039,4.60041,2470.483,2021-12-23T11:32:06Z
2021-12-23T09:33:40Z,42.805,6.029,13.3012,4.60049,2470.497,2021-12-23T11:35:09Z
2021-12-23T09:36:43Z,42.805,6.029,13.3011,4.60072,2470.52,2021-12-23T11:38:12Z
2021-12-23T09:39:46Z,42.805,6.029,13.3026,4.60049,2470.53,2021-12-23T11:41:16Z
2021-12-23T09:42:50Z,42.805,6.029,13.3035,4.60056,2470.52,2021-12-23T11:44:19Z
2021-12-23T09:45:53Z,42.805,6.029,13.3009,4.60046,2470.497,2021-12-23T11:47:22Z
2021-12-23T09:48:56Z,42.805,6.029,13.3029,4.60050,2470.483,2021-12-23T11:50:25Z
2021-12-23T09:51:59Z,42.805,6.029,13.3031,4.60085,2470.52,2021-12-23T11:53:28Z
2021-12-23T09:55:02Z,42.805,6.029,13.3033,4.60060,2470.544,2021-12-23T11:56:31Z
2021-12-23T09:58:05Z,42.805,6.029,13.3015,4.60032,2470.507,2021-12-23T11:59:34Z
2021-12-23T10:01:08Z,42.805,6.029,13.3036,4.60049,2470.53,2021-12-23T12:02:37Z
2021-12-23T10:04:11Z,42.805,6.029,13.3041,4.60087,2470.553,2021-12-23T12:05:41Z
2021-12-23T10:07:15Z,42.805,6.029,13.3023,4.60086,2470.52,2021-12-23T12:08:44Z
2021-12-23T10:10:18Z,42.805,6.029,13.3053,4.60081,2470.497,2021-12-23T12:11:47Z
2021-12-23T10:13:21Z,42.805,6.029,13.3058,4.60102,2470.507,2021-12-23T12:14:50Z
2021-12-23T10:16:24Z,42.805,6.029,13.3073,4.60122,2470.53,2021-12-23T12:17:53Z
2021-12-23T10:19:27Z,42.805,6.029,13.3070,4.60097,2470.483,2021-12-23T12:20:56Z
2021-12-23T10:22:30Z,42.805,6.029,13.3075,4.60091,2470.53,2021-12-23T12:23:59Z
2021-12-23T10:25:33Z,42.805,6.029,13.3034,4.60155,2470.507,2021-12-23T12:27:02Z
2021-12-23T10:28:36Z,42.805,6.029,13.3034,4.60170,2470.52,2021-12-23T12:30:06Z
2021-12-23T10:31:40Z,42.805,6.029,13.3054,4.60096,2470.507,2021-12-23T12:33:09Z
2021-12-23T10:34:43Z,42.805,6.029,13.3051,4.60057,2470.53,2021-12-23T12:36:12Z
2021-12-23T10:37:46Z,42.805,6.029,13.3065,4.60087,2470.53,2021-12-23T12:39:15Z
2021-12-23T10:40:49Z,42.805,6.029,13.3029,4.60122,2470.553,2021-12-23T12:42:18Z
2021-12-23T10:43:52Z,42.805,6.029,13.3051,4.60114,2470.507,2021-12-23T12:45:21Z
2021-12-23T10:46:55Z,42.805,6.029,13.3035,4.60106,2470.544,2021-12-23T12:48:24Z
2021-12-23T10:49:58Z,42.805,6.029,13.3046,4.60117,2470.52,2021-12-23T12:51:27Z
2021-12-23T10:53:01Z,42.805,6.029,13.3037,4.60046,2470.53,2021-12-23T12:54:31Z
2021-12-23T10:56:05Z,42.805,6.029,13.3069,4.60110,2470.544,2021-12-23T12:57:34Z
2021-12-23T10:59:08Z,42.805,6.029,13.3051,4.60087,2470.53,2021-12-23T13:00:37Z
2021-12-23T11:02:11Z,42.805,6.029,13.3070,4.60111,2470.53,2021-12-23T13:03:40Z
2021-12-23T11:05:14Z,42.805,6.029,13.3046,4.60102,2470.53,2021-12-23T13:06:43Z
2021-12-23T11:08:17Z,42.805,6.029,13.3043,4.60092,2470.497,2021-12-23T13:09:46Z
2021-12-23T11:11:20Z,42.805,6.029,13.3013,4.60099,2470.507,2021-12-23T13:12:49Z
2021-12-23T11:14:23Z,42.805,6.029,13.3004,4.60073,2470.507,2021-12-23T13:15:52Z
2021-12-23T11:17:27Z,42.805,6.029,13.3010,4.60057,2470.539,2021-12-23T13:18:56Z
2021-12-23T11:20:30Z,42.805,6.029,13.3010,4.60055,2470.52,2021-12-23T13:21:59Z
2021-12-23T11:23:33Z,42.805,6.029,13.3005,4.60061,2470.483,2021-12-23T13:25:02Z
2021-12-23T11:26:36Z,42.805,6.029,13.3011,4.60082,2470.497,2021-12-23T13:28:05Z
2021-12-23T11:29:39Z,42.805,6.029,13.3009,4.60058,2470.52,2021-12-23T13:31:08Z
2021-12-23T11:32:42Z,42.805,6.029,13.3015,4.60082,2470.483,2021-12-23T13:34:11Z
2021-12-23T11:35:45Z,42.805,6.029,13.3019,4.60074,2470.52,2021-12-23T13:37:14Z
2021-12-23T11:38:48Z,42.805,6.029,13.3024,4.60079,2470.52,2021-12-23T13:40:18Z
2021-12-23T11:41:52Z,42.805,6.029,13.3031,4.60069,2470.45,2021-12-23T13:43:21Z
2021-12-23T11:44:55Z,42.805,6.029,13.3015,4.60089,2470.53,2021-12-23T13:46:24Z
2021-12-23T11:47:58Z,42.805,6.029,13.3026,4.60082,2470.544,2021-12-23T13:49:27Z
2021-12-23T11:51:01Z,42.805,6.029,13.3017,4.60106,2470.544,2021-12-23T13:52:30Z
2021-12-23T11:54:04Z,42.805,6.029,13.3001,4.60074,2470.497,2021-12-23T13:55:33Z
2021-12-23T11:57:07Z,42.805,6.029,13.3018,4.60069,2470.483,2021-12-23T13:58:36Z
2021-12-23T12:00:10Z,42.805,6.029,13.3027,4.60068,2470.507,2021-12-23T14:01:39Z
2021-12-23T12:03:13Z,42.805,6.029,13.3009,4.60084,2470.483,2021-12-23T14:04:43Z
2021-12-23T12:06:17Z,42.805,6.029,13.3002,4.60049,2470.544,2021-12-23T14:07:46Z
2021-12-23T12:09:20Z,42.805,6.029,13.3009,4.60040,2470.483,2021-12-23T14:10:49Z
2021-12-23T12:12:23Z,42.805,6.029,13.3003,4.60053,2470.46,2021-12-23T14:13:52Z
2021-12-23T12:15:26Z,42.805,6.029,13.3016,4.60063,2470.507,2021-12-23T14:16:55Z
2021-12-23T12:18:29Z,42.805,6.029,13.3015,4.60055,2470.497,2021-12-23T14:19:58Z
2021-12-23T12:21:32Z,42.805,6.029,13.3011,4.60043,2470.46,2021-12-23T14:23:01Z
2021-12-23T12:24:35Z,42.805,6.029,13.3004,4.60046,2470.507,2021-12-23T14:26:04Z
2021-12-23T12:27:38Z,42.805,6.029,13.3006,4.60073,2470.474,2021-12-23T14:29:08Z
2021-12-23T12:30:42Z,42.805,6.029,13.3019,4.60061,2470.507,2021-12-23T14:32:11Z
2021-12-23T12:33:45Z,42.805,6.029,13.3004,4.60087,2470.46,2021-12-23T14:35:14Z
2021-12-23T12:36:48Z,42.805,6.029,13.3015,4.60089,2470.483,2021-12-23T14:38:17Z
2021-12-23T12:39:51Z,42.805,6.029,13.3018,4.60062,2470.474,2021-12-23T14:41:20Z
2021-12-23T12:42:54Z,42.805,6.029,13.3025,4.60064,2470.474,2021-12-23T14:44:23Z
2021-12-23T12:45:57Z,42.805,6.029,13.3019,4.60091,2470.46,2021-12-23T14:47:26Z
2021-12-23T12:49:00Z,42.805,6.029,13.3024,4.60076,2470.46,2021-12-23T14:50:30Z
2021-12-23T12:52:04Z,42.805,6.029,13.3035,4.60079,2470.45,2021-12-23T14:53:33Z
2021-12-23T12:55:07Z,42.805,6.029,13.3036,4.60059,2470.474,2021-12-23T14:56:36Z
2021-12-23T12:58:10Z,42.805,6.029,13.3027,4.60067,2470.45,2021-12-23T14:59:39Z
2021-12-23T13:01:13Z,42.805,6.029,13.3029,4.60069,2470.474,2021-12-23T15:02:42Z
2021-12-23T13:04:16Z,42.805,6.029,13.3022,4.60085,2470.497,2021-12-23T15:05:45Z
2021-12-23T13:07:19Z,42.805,6.029,13.3033,4.60076,2470.474,2021-12-23T15:08:48Z
2021-12-23T13:10:22Z,42.805,6.029,13.3044,4.60067,2470.46,2021-12-23T15:11:51Z
2021-12-23T13:13:25Z,42.805,6.029,13.3033,4.60041,2470.437,2021-12-23T15:14:55Z
2021-12-23T13:16:29Z,42.805,6.029,13.3034,4.60076,2470.46,2021-12-23T15:17:58Z
2021-12-23T13:19:32Z,42.805,6.029,13.3024,4.60085,2470.437,2021-12-23T15:21:01Z
2021-12-23T13:22:35Z,42.805,6.029,13.3026,4.60079,2470.437,2021-12-23T15:24:04Z
2021-12-23T13:25:38Z,42.805,6.029,13.3036,4.60062,2470.46,2021-12-23T15:27:07Z
2021-12-23T13:28:41Z,42.805,6.029,13.3008,4.60073,2470.46,2021-12-23T15:30:10Z
2021-12-23T13:31:44Z,42.805,6.029,13.3024,4.60069,2470.46,2021-12-23T15:33:13Z
2021-12-23T13:34:47Z,42.805,6.029,13.3021,4.60076,2470.437,2021-12-23T15:36:16Z
2021-12-23T13:37:50Z,42.805,6.029,13.3024,4.60080,2470.437,2021-12-23T15:39:20Z
2021-12-23T13:40:54Z,42.805,6.029,13.3024,4.60084,2470.45,2021-12-23T15:42:23Z
2021-12-23T13:43:57Z,42.805,6.029,13.3025,4.60074,2470.437,2021-12-23T15:45:26Z
2021-12-23T13:47:00Z,42.805,6.029,13.3035,4.60075,2470.437,2021-12-23T15:48:29Z
2021-12-23T13:50:03Z,42.805,6.029,13.3030,4.60072,2470.437,2021-12-23T15:51:32Z
2021-12-23T13:53:06Z,42.805,6.029,13.3027,4.60075,2470.413,2021-12-23T15:54:35Z
2021-12-23T13:56:09Z,42.805,6.029,13.3026,4.60081,2470.413,2021-12-23T15:57:38Z
2021-12-23T13:59:12Z,42.805,6.029,13.3033,4.60077,2470.427,2021-12-23T16:00:41Z
2021-12-23T14:02:15Z,42.805,6.029,13.3025,4.60075,2470.45,2021-12-23T16:03:45Z
2021-12-23T14:05:19Z,42.805,6.029,13.3018,4.60076,2470.427,2021-12-23T16:06:48Z
2021-12-23T14:08:22Z,42.805,6.029,13.3034,4.60082,2470.413,2021-12-23T16:09:51Z
2021-12-23T14:11:25Z,42.805,6.029,13.3030,4.60069,2470.39,2021-12-23T16:12:54Z
2021-12-23T14:14:28Z,42.805,6.029,13.3031,4.60064,2470.404,2021-12-23T16:15:57Z
2021-12-23T14:17:31Z,42.805,6.029,13.3038,4.60078,2470.404,2021-12-23T16:19:00Z
2021-12-23T14:20:34Z,42.805,6.029,13.3026,4.60050,2470.39,2021-12-23T16:22:03Z
2021-12-23T14:23:37Z,42.805,6.029,13.3026,4.60091,2470.427,2021-12-23T16:25:06Z
2021-12-23T14:26:40Z,42.805,6.029,13.3010,4.60089,2470.39,2021-12-23T16:28:10Z
2021-12-23T14:29:44Z,42.805,6.029,13.3019,4.60079,2470.413,2021-12-23T16:31:13Z
2021-12-23T14:32:47Z,42.805,6.029,13.3026,4.60072,2470.366,2021-12-23T16:34:16Z
2021-12-23T14:35:50Z,42.805,6.029,13.3025,4.60089,2470.404,2021-12-23T16:37:19Z
2021-12-23T14:38:53Z,42.805,6.029,13.3035,4.60077,2470.427,2021-12-23T16:40:22Z
2021-12-23T14:41:56Z,42.805,6.029,13.3027,4.60064,2470.413,2021-12-23T16:43:25Z
2021-12-23T14:44:59Z,42.805,6.029,13.3012,4.60072,2470.404,2021-12-23T16:46:28Z
2021-12-23T14:48:02Z,42.805,6.029,13.3014,4.60084,2470.366,2021-12-23T16:49:31Z
2021-12-23T14:51:06Z,42.805,6.029,13.3033,4.60067,2470.404,2021-12-23T16:52:35Z
2021-12-23T14:54:09Z,42.805,6.029,13.3019,4.60074,2470.39,2021-12-23T16:55:38Z
2021-12-23T14:57:12Z,42.805,6.029,13.3014,4.60077,2470.376,2021-12-23T16:58:41Z
2021-12-23T15:00:15Z,42.805,6.029,13.3018,4.60087,2470.366,2021-12-23T17:01:44Z
2021-12-23T15:03:18Z,42.805,6.029,13.3025,4.60087,2470.343,2021-12-23T17:04:47Z